www.pogodaiklimat.ru

Погода и климат >> Архив погоды >> Россия >> Саратовская область >> Петровск


ПОГОДА в Петровске

  • Прогноз погоды в Петровске
  • Монитор погоды в Петровске

АРХИВ ПОГОДЫ в Петровске

Время (UTC), дата Ветер
(напр.,м/с)
 
Видим.   Явления Облачность Т
(С)
Тd
(С)
f
(%)
Тe
(С)
Тes
(С)
Комфортность P
(гПа)
Po
(гПа)
Тmin
(С)
Tmax
(С)
R
(мм)
R24
(мм)
S
(см)
21 11.09 СВ 1 10 км ясно +8.1 +5.7 85 +7 +7 1032.6 1008.4
00 12.09 штиль 0 10 км ясно +4.8 +4.2 96 +4 +4 1032.9 1008.4
03 12.09 штиль 0 10 км туман поземный ясно +3.6 +3.3 98 +2 +2 1033.3 1008.6 +3.0
06 12.09 В 1 20 км ясно +18.8 +7.9 49 +20 +26 1032.0 1008.7
09 12.09 В 2 20 км ясно +22.8 +4.7 31 +23 +32 комфорт 1030.4 1007.4
12 12.09 В 2 20 км ясно +23.9 +4.3 28 +24 +28 комфорт 1028.7 1005.8
15 12.09 З 1 20 км ясно +21.5 +5.0 34 +22 +22 комфорт 1028.2 1005.1 +24.4
18 12.09 З 1 10 км ясно +10.8 +5.9 72 +11 +11 1029.0 1005.1
21 12.09 СВ 1 10 км ясно +6.9 +5.2 89 +6 +6 1028.7 1004.5
00 13.09 штиль 0 10 км ясно +4.9 +4.5 97 +4 +4 1028.5 1004.1
03 13.09 штиль 0 10 км туман поземный ясно +3.4 +3.0 97 +2 +2 1028.5 1004.0 +2.9
06 13.09 ЮЗ 1 20 км ясно +18.5 +7.1 47 +20 +26 1027.0 1003.7
09 13.09 З 3 20 км ясно +24.2 +5.5 30 +24 +32 комфорт 1025.1 1002.3
12 13.09 З 2 20 км ясно +25.0 +5.2 28 +25 +29 комфорт 1023.2 1000.5
15 13.09 Ю 1 20 км ясно +20.5 +6.7 41 +23 +23 комфорт 1022.0 999.0 +25.5
18 13.09 штиль 0 10 км ясно +11.8 +5.5 65 +11 +11 1022.5 998.8
21 13.09 штиль 0 10 км ясно +6.4 +4.6 88 +5 +5 1021.8 997.7
00 14.09 В 1 10 км туман поземный ясно +4.9 +4.0 94 +3 +3 1020.7 996.5
03 14.09 штиль 0 20 км туман поземный 1/0
[Ci fib]
+3.7 +3.2 97 +2 +2 1020.0 995.7 +2.9
06 14.09 Ю 5 20 км ясно +20.2 +5.6 38 +21 +23 комфорт 1017.4 994.5
09 14.09 ЮЗ 8-13
{13}
20 км 3/0
[Ci fib]
+25.9 +4.1 25 +25 +27 комфорт 1015.3 992.9
12 14.09 ЮЗ 7-12
{14}
20 км 9/1 600 м
[Cb calv Ac lent Ci fib]
+25.3 +4.1 25 +24 +25 комфорт 1013.7 991.3
15 14.09 Ю 3
{12}
20 км 10/3 600 м
[Cb calv Ci fib]
+21.8 +4.7 33 +22 +22 комфорт 1012.7 990.0 +26.2
18 14.09 СЗ 7-10
{12}
10 км 10/0
[Ac und]
+16.3 +11.1 71 +15 +15 1014.4 991.3
21 14.09 З 2
{10}
10 км {ливн. осадки} 10/3 600 м
[Cb calv Ci fib]
+12.3 +11.6 95 +11 +11 1015.8 992.3
00 15.09 ЮЗ 3 10 км слаб. ливневой дождь 10/10 700 м
[Cb calv]
+11.4 +11.0 97 +9 +9 1015.4 991.9
03 15.09 З 3 20 км {ливн. осадки} 6/3 600 м
[Cb calv Ci fib]
+10.8 +10.2 96 +9 +9 1015.6 992.0 +10.8 3
06 15.09 З 3 20 км {ливн. осадки} 3/3 300 м
[Cu med, cong Ac cuf Ci fib]
+14.0 +10.9 82 +13 +16 1016.3 993.0 +10.2
09 15.09 З 5 20 км 9/4 1000 м
[Cu med, cong Ac cuf Cs]
+15.7 +5.0 49 +15 +16 1015.7 992.5
12 15.09 ЮЗ 4 20 км слаб. ливневой дождь {гроза} 9/6 720 м
[Cb calv Ac cuf Cs]
+14.8 +5.9 55 +14 +14 1015.0 991.7
15 15.09 Ю 3
{14}
20 км в посл. час ливневой дождь {гроза} 4/3 300 м
[Cb calv Ac cuf Ci fib]
+8.2 +6.6 90 +5 +5 1015.9 992.1 +16.5 1
18 15.09 ЮЗ 2 10 км {гроза, ливн. осадки} ясно +5.8 +5.2 96 +3 +3 1016.2 992.2
21 15.09 Ю 1 10 км 8/0
[Ci fib]
+4.1 +3.7 97 +2 +2 1015.5 991.3
00 16.09 Ю 3 10 км 8/0
[Ac cast]
+5.1 +4.3 95 +1 +1 1014.1 990.1
03 16.09 Ю 4 20 км 10/0
[Ac und]
+7.6 +4.6 81 +4 +4 1011.6 987.8 +3.6
06 16.09 ЮЗ 4 20 км 10/0
[Ac und]
+11.5 +6.0 69 +9 +10 1009.6 986.2
09 16.09 ЮЗ 8-13
{14}
20 км 10/0
[Cs]
+16.8 +6.2 50 +15 +17 1006.3 983.4
12 16.09 ЮЗ 6-12
{17}
20 км слаб. дождь 10/0
[Ac und]
+17.8 +3.5 39 +17 +18 1004.3 981.5
15 16.09 З 5
{15}
20 км {дождь} 10/0
[Ac und]
+16.3 +5.3 48 +15 +15 1004.0 981.1 +18.6 0.0
18 16.09 ЮЗ 3
{11}
10 км {дождь} 10/0
[Ac und]
+12.2 +6.5 68 +11 +11 1004.8 981.6
21 16.09 ЮЗ 3 10 км 10/0
[Ac und]
+10.9 +6.3 73 +9 +9 1004.5 981.2
00 17.09 Ю 2 10 км 10/0
[Ci fib]
+5.4 +3.8 89 +3 +3 1005.0 981.1
03 17.09 Ю 3 20 км 3/0
[Ac lent Ci fib]
+6.5 +5.2 91 +3 +3 1004.4 980.7 +4.9 0.0
06 17.09 ЮЗ 4 20 км 3/0
[Ac trans Ci fib]
+13.7 +7.8 68 +12 +15 1003.8 980.7
09 17.09 ЮЗ 5
{11}
20 км 10/4 1000 м
[Cu med, cong Ac cuf Ci fib]
+19.4 +7.4 46 +20 +21 1002.1 979.5
12 17.09 ЮЗ 7-10
{12}
20 км 10/4 1000 м
[Cb calv Ac cuf Ci fib]
+18.8 +5.0 40 +18 +19 1000.9 978.3
15 17.09 З 2
{10}
20 км 10/4 1000 м
[Cb calv Ac cuf Ci fib]
+16.6 +5.2 47 +17 +17 1000.6 977.8 +20.6
18 17.09 ЮЗ 2 10 км 10/0
[Ac und]
+12.2 +5.1 62 +11 +11 1001.9 978.7
21 17.09 ЮЗ 2 10 км ясно +6.9 +3.2 77 +5 +5 1003.1 979.4
00 18.09 Ю 1 10 км туман поземный ясно +4.2 +2.3 87 +3 +3 1004.0 980.1
03 18.09 ЮВ 3 20 км ясно +0.4 -0.2 96 -4 -4 1005.1 980.8 +0.1
06 18.09 Ю 2 20 км 10/0
[Ci fib]
+10.8 +4.2 64 +10 +13 1004.6 981.2
09 18.09 ЮЗ 4 20 км 8/3 1000 м
[Cb calv Ci fib]
+16.7 +4.1 43 +16 +20 1003.0 980.1
12 18.09 З 4
{10}
20 км в посл. час ливневой дождь 10/3 1000 м
[Cb calv Cs]
+15.7 +3.4 44 +15 +16 1001.2 978.4
15 18.09 штиль 0 20 км слаб. дождь 10/10 1440 м
[Sc]
+11.1 +7.7 80 +11 +11 1000.1 976.9 +18.3 0.3
18 18.09 СЗ 2 10 км дождь {ливн. осадки} 10/10 360 м
[Frnb Ns]
+9.5 +9.1 97 +8 +8 996.5 973.2

 

Местоположение метеостанции Петровск (Саратовская область, Россия): широта 52.28 долгота 45.40 высота над уровнем моря 199 м.

В архиве по умолчанию представлена погода в Петровске за последнюю неделю. Архивные данные за месяц целиком и за предыдущие месяцы, начиная с января 2011 года, Вы можете получить, выбрав интересующий диапазон дат из раскрывающегося списка и нажав кнопку "Ввод!".


*Определитесь, кто Вы:
робот инопланетянин человек

Внимание! Время в таблицах - всемирное. Для получения местного времени необходимо прибавить поправку, которая равна 4 ч.

Смотрите также архив погоды в соседних городах и на ближайших метеорологических станциях:

Погода в Аткарске (Саратовская область, Россия) (52 км)
Погода в Кондоле (Пензенская область, Россия) (64 км)
Погода в Карабулаке (Саратовская область, Россия) (66 км)
Погода в Колышлее (Пензенская область, Россия) (67 км)
Погода в Октябрьском Городке (Саратовская область, Россия) (72 км)
Погода в Саратове ЮВ (Саратовская область, Россия) (89 км)
Погода в Саратове (Саратовская область, Россия) (90 км)
Погода в Пензе (Пензенская область, Россия) (97 км)
Погода в Калининске (Саратовская область, Россия) (108 км)
Погода в Радищево (Пензенская область, Россия) (110 км)

Пояснения к столбцам:

Ветер - указаны скорость ветра в м/с - средняя за 10 мин, порывы в срок и между сроками (в фигурных скобках) и направление, откуда дует ветер: С - северный, СВ - северо-восточный, В - восточный, ЮВ - юго-восточный, Ю - южный, ЮЗ - юго-западный, З - западный, СЗ - северо-западный.
Видимость - горизонтальная дальность видимости в метрах или километрах. При видимости от 1 до 10 км при отсутствии осадков обычно наблюдается дымка, при ухудшении видимости до 1 км и менее - туман. В сухую погоду видимость может ухудшаться дымом, пылью или мглою.
Явления - указаны атмосферные явления, наблюдавшиеся в срок или в последний час перед сроком; фигурными скобками обозначены явления, наблюдавшиеся между сроками (за 1-3 часа до срока); квадратными скобками обозначены град или гололедные отложения с указанием их диаметра в мм.
Облачность - указаны через наклонную черту общая и нижняя облачность в баллах и высота нижней границы облаков в метрах; квадратными скобками обозначены формы облаков: Ci - перистые, Cs - перисто-слоистые, Cc - перисто-кучевые, Ac - высококучевые, As - высокослоистые, Sc - слоисто-кучевые, Ns - слоисто-дождевые, Cu - кучевые, Cb - кучево-дождевые. Подробнее классификацию облаков см. в Атласе облаков (PDF).
T - Температура воздуха - температура, измеренная на высоте 2 м над землей.
Td - Температура точки росы - температура, при понижении до которой содержащийся в воздухе водяной пар достигнет насыщения.
f - Относительная влажность воздуха - влажноcть воздуха, измеренная на высоте 2 м над землей.
Te - Эффективная температура - температура, которую ощущает одетый по сезону человек в тени. Характеристика душности погоды. При расчете учитывается влияние влажности воздуха и скорости ветра на теплоощущения человека.
Tes - Эффективная температура на солнце - температура, которую ощущает человек, с поправкой на солнечный нагрев. Характеристика знойности погоды. Зависит от высоты солнца над горизонтом, облачности и скорости ветра. Ночью, в пасмурную погоду, а также при ветре 12 м/с и более поправка равна нулю.
P - Атмосферное давление - приведенное к уровню моря атмосферное давление.
Po - Атмосферное давление - измеренное на уровне метеостанции атмосферное давление.
Tmin - Минимальная температура - минимум температуры воздуха на высоте 2 м над землей.
Tmax - Максимальная температура - максимум температуры воздуха на высоте 2 м над землей.
R - Количество осадков - Количество выпавших осадков за период времени, мм. При наведении курсора мыши на число - период времени, за который выпало указанное количество осадков.
R24 - Количество осадков - Количество выпавших осадков за 24 часа, мм.
S - Снежный покров - Высота снежного покрова, см. При наведении курсора мыши на число - состояние снежного покрова и степень покрытия местности в баллах.